This is the latest recevied weather packets stored in our database for station/object IZ1GCT. If no packets are shown the sender has not sent any weather packets the latest 10 day(s).
| Time | Temp. | Humidity | Pressure | Rain* | Wind** | Luminosity | Snow |
|---|---|---|---|---|---|---|---|
| 1778174440 | 18.89° C | 48% | 1015.2 hPa | 0 mm | - | - | - |
| 1778174139 | 18.89° C | 48% | 1015 hPa | 0 mm | - | - | - |
| 1778173841 | 18.89° C | 48% | 1015 hPa | 0 mm | - | - | - |
| 1778173540 | 19.44° C | 47% | 1014.9 hPa | 0 mm | - | - | - |
| 1778173239 | 19.44° C | 47% | 1014.8 hPa | 0 mm | - | - | - |
| 1778172939 | 20° C | 48% | 1014.9 hPa | 0 mm | - | - | - |
| 1778172640 | 19.44° C | 48% | 1014.9 hPa | 0 mm | - | - | - |
| 1778172339 | 20° C | 46% | 1014.9 hPa | 0 mm | - | - | - |
| 1778172039 | 20° C | 46% | 1014.8 hPa | 0 mm | - | - | - |
| 1778171740 | 20° C | 45% | 1014.7 hPa | 0 mm | - | - | - |
| 1778171440 | 20° C | 44% | 1014.7 hPa | 0 mm | - | - | - |
| 1778171139 | 20.56° C | 43% | 1014.9 hPa | 0 mm | - | - | - |
| 1778170840 | 21.11° C | 43% | 1014.7 hPa | 0 mm | - | - | - |
| 1778170540 | 21.11° C | 44% | 1014.8 hPa | 0 mm | - | - | - |
| 1778170239 | 21.11° C | 44% | 1014.6 hPa | 0 mm | - | - | - |
| 1778169940 | 21.11° C | 45% | 1014.7 hPa | 0 mm | - | - | - |
| 1778169342 | 20° C | 45% | 1014.6 hPa | 0 mm | - | - | - |
| 1778169044 | 20.56° C | 44% | 1014.5 hPa | 0 mm | - | - | - |
| 1778168743 | 21.11° C | 43% | 1014.5 hPa | 0 mm | - | - | - |
| 1778168442 | 20.56° C | 43% | 1014.6 hPa | 0 mm | - | - | - |
| 1778168143 | 20.56° C | 42% | 1014.6 hPa | 0 mm | - | - | - |
| 1778167843 | 20.56° C | 43% | 1014.6 hPa | 0 mm | - | - | - |
| 1778167543 | 20.56° C | 44% | 1014.6 hPa | 0 mm | - | - | - |
| 1778167242 | 21.11° C | 42% | 1014.5 hPa | 0 mm | - | - | - |
| 1778166943 | 21.11° C | 44% | 1014.5 hPa | 0 mm | - | - | - |
* Rain latest hour (hover to see other rain measurements)
** Current wind speed in m/s (hover to see current wind gust speed)